Temperature
2 3 3 4 4 5 5 5 6 6 6 6 7 7 7 7 8 8 8 8 9 9 9 9 9 9 9 10 10 10 10 10 10 10 10 10 10 10 10 10 10 10 11
2 2 3 3 4 4 4 5 5 5 6 6 6 6 6 7 7 7 7 8 8 8 8 9 9 9 9 9 9 9 9 9 9 9 9 9 9 10 10 10 10 10 10
1 1 2 2 3 3 4 4 4 5 5 5 5 6 6 6 6 6 7 7 8 8 8 8 8 9 9 9 9 9 9 9 9 9 9 9 10 9 9 10 10 10 10
0 1 1 2 2 2 3 3 4 4 5 5 5 5 5 5 6 6 6 7 7 7 7 8 8 8 8 8 9 9 9 9 9 9 9 9 9 9 9 9 9 9 10
0 0 1 1 1 2 2 3 3 4 4 4 4 4 5 5 5 5 6 6 6 7 7 7 7 8 8 8 8 8 8 9 9 9 9 9 9 9 9 9 9 9 9
-0 -0 0 1 1 1 2 2 3 3 3 4 4 4 4 4 4 5 5 5 6 6 6 7 7 7 8 8 8 8 8 8 8 8 9 9 9 9 9 9 9 9 9
-1 -0 -0 0 0 1 1 1 2 2 3 3 3 3 3 3 4 4 4 4 5 5 6 6 6 7 7 7 8 8 8 8 8 8 8 9 9 9 9 9 8 8 8
-1 -1 -1 -1 -0 0 0 1 1 2 2 2 3 3 3 3 3 3 3 4 4 5 5 6 6 6 7 7 7 7 7 7 8 8 8 8 8 9 9 9 8 8 8
-2 -2 -1 -1 -1 -0 -0 0 1 1 1 2 2 2 3 3 3 3 3 3 4 4 5 5 5 6 6 6 6 7 7 7 7 7 8 8 8 8 8 8 8 8 8
-2 -2 -2 -2 -1 -1 -0 -0 0 1 1 1 2 2 2 2 2 3 3 3 3 4 4 4 5 5 6 6 6 6 7 7 7 7 7 7 8 8 8 8 8 8 8
-3 -3 -2 -2 -2 -1 -1 -1 -0 0 0 1 1 2 2 2 2 2 2 2 3 3 4 4 4 4 5 5 6 6 6 6 6 7 7 7 7 8 8 8 8 8 8
-3 -3 -3 -2 -2 -2 -1 -1 -1 -1 -0 0 0 1 1 1 2 2 2 2 2 3 3 3 4 4 4 5 5 5 6 6 6 6 6 7 7 7 7 7 7 7 7
-4 -3 -3 -3 -3 -2 -2 -2 -1 -1 -1 -1 -0 0 1 1 1 1 2 2 2 2 3 3 3 3 4 4 4 5 5 5 5 6 6 6 6 7 7 7 7 7 7
-4 -4 -4 -3 -3 -3 -2 -2 -2 -2 -1 -1 -1 -0 -0 0 1 1 1 1 2 2 2 2 3 3 3 4 4 4 4 5 5 5 5 6 6 6 6 7 7 7 6
-4 -4 -4 -4 -4 -3 -3 -3 -2 -2 -2 -2 -1 -1 -1 -0 -0 0 1 1 1 1 2 2 2 3 3 3 4 4 4 4 4 4 5 5 5 6 6 6 6 6 6
-5 -5 -4 -4 -4 -4 -4 -4 -3 -3 -2 -2 -2 -2 -1 -1 -1 -0 0 0 1 1 1 1 2 2 2 3 3 3 3 3 4 4 4 5 5 5 5 5 6 6 6
-5 -5 -5 -5 -5 -5 -5 -4 -4 -4 -3 -3 -3 -2 -2 -2 -1 -1 -1 -1 -0 0 0 1 1 1 2 2 3 3 3 3 3 4 4 4 4 4 5 5 5 5 5
-6 -5 -5 -5 -5 -5 -5 -5 -5 -4 -4 -4 -3 -3 -3 -2 -2 -2 -1 -1 -1 -1 -0 0 0 1 1 2 2 2 2 2 3 3 3 3 4 4 4 4 4 4 4
-6 -6 -6 -6 -6 -6 -5 -5 -5 -5 -5 -4 -4 -4 -4 -3 -3 -2 -2 -2 -2 -1 -1 -1 -0 0 1 1 1 1 1 2 2 2 2 3 3 3 3 3 4 4 4
-6 -6 -6 -6 -6 -6 -6 -6 -6 -5 -5 -5 -5 -5 -5 -4 -4 -3 -3 -3 -3 -2 -2 -1 -1 -1 -0 0 0 0 0 1 1 1 2 2 2 3 3 3 3 3 3
-7 -7 -7 -7 -7 -7 -6 -6 -6 -6 -6 -6 -6 -5 -5 -5 -4 -4 -4 -4 -3 -3 -3 -2 -2 -1 -1 -1 -0 -0 -0 0 0 1 1 1 2 2 2 2 2 2 3
-7 -7 -7 -7 -7 -7 -7 -7 -7 -6 -6 -6 -6 -6 -6 -5 -5 -5 -4 -4 -4 -4 -3 -3 -3 -2 -2 -1 -1 -1 -1 -1 -0 -0 0 1 1 1 1 1 2 2 2
-8 -8 -8 -8 -8 -7 -7 -7 -7 -7 -7 -7 -6 -6 -6 -6 -6 -5 -5 -5 -5 -4 -4 -4 -3 -3 -3 -2 -2 -1 -1 -1 -1 -1 -0 -0 0 1 1 1 1 1 1
-8 -8 -8 -8 -8 -8 -8 -8 -7 -7 -7 -7 -7 -7 -6 -6 -6 -6 -6 -5 -5 -5 -5 -5 -4 -4 -4 -3 -3 -2 -2 -2 -2 -1 -1 -1 -1 -0 -0 -0 0 0 0
-9 -9 -9 -9 -8 -8 -8 -8 -8 -8 -7 -7 -7 -7 -7 -7 -6 -6 -6 -6 -6 -6 -5 -5 -5 -5 -4 -4 -3 -3 -3 -2 -2 -2 -2 -2 -1 -1 -1 -1 -1 -1 -1
-9 -9 -9 -9 -9 -9 -8 -8 -8 -8 -8 -8 -8 -7 -7 -7 -7 -7 -7 -7 -6 -6 -6 -6 -5 -5 -5 -4 -4 -3 -3 -3 -3 -2 -2 -2 -2 -2 -2 -2 -1 -1 -1
Wind_Speed
6 6 5 4 3 3 3 3 2 1 1 1 1 2 2 2 2 2 3 5 5 6 5 4 6 6 5 6 6 6 7 5 6 4 3 2 1 1 2 2 2 3 3
7 7 7 5 4 3 3 4 3 2 1 1 2 3 3 3 3 3 3 4 5 6 5 5 5 6 5 6 7 6 5 4 5 5 5 3 3 2 2 2 2 2 3
7 6 7 7 5 4 5 4 4 4 2 2 2 2 1 2 2 3 3 4 5 6 6 6 5 7 7 7 8 8 8 6 6 5 4 4 4 3 3 3 2 2 3
6 6 7 7 7 6 5 5 5 4 3 2 2 3 3 3 4 3 4 5 5 5 5 6 6 6 7 7 8 8 7 8 7 5 3 2 3 4 3 3 3 3 3
6 6 7 7 7 7 6 5 5 5 4 3 3 4 4 4 4 3 5 5 4 5 6 6 7 6 6 7 8 8 8 8 8 7 5 4 3 4 4 4 4 3 3
7 7 7 7 6 6 6 5 5 5 5 4 4 4 5 5 5 4 4 4 4 4 5 5 6 7 6 7 7 8 9 8 8 7 6 6 6 6 5 4 5 4 3
7 7 8 8 7 7 7 6 6 6 6 5 4 4 5 6 7 6 5 5 4 4 5 5 6 6 7 7 8 8 9 9 9 9 7 7 7 5 5 5 5 4 2
7 7 8 8 7 8 7 7 6 6 6 6 5 4 4 4 5 6 6 6 5 5 6 6 6 7 7 7 7 7 8 8 9 9 8 7 6 6 6 5 5 4 3
8 7 7 7 7 7 8 7 7 7 7 6 5 5 4 5 5 5 5 5 5 5 7 7 6 7 7 7 7 7 9 8 8 8 8 7 6 6 6 6 6 6 5
8 8 7 7 7 7 7 7 7 7 7 6 5 4 5 5 5 4 4 5 5 5 6 6 7 6 6 6 7 7 8 9 8 6 8 8 6 6 6 6 6 6 6
8 8 7 7 7 7 7 7 7 7 6 6 6 5 5 5 4 4 4 4 5 5 6 6 6 6 6 6 6 7 8 9 9 8 8 9 8 7 6 6 6 6 6
7 7 8 7 7 7 7 7 7 7 6 6 6 6 6 5 5 5 5 4 5 5 5 5 6 6 6 7 7 8 9 9 10 9 9 9 7 8 7 6 7 7 7
7 7 7 7 7 8 7 7 7 7 7 6 6 6 6 5 5 5 5 5 5 5 5 5 6 6 6 7 8 8 9 9 9 9 10 9 9 9 7 8 7 6 6
8 8 8 8 8 7 7 7 8 8 7 6 6 6 6 6 6 5 5 5 5 5 5 6 6 6 6 7 6 6 7 7 8 8 9 9 10 9 9 8 8 7 7
10 9 9 9 8 8 8 8 8 8 7 6 6 6 7 6 6 5 5 5 6 6 6 6 6 6 6 6 6 6 6 6 6 6 7 8 8 8 8 7 8 8 7
10 9 9 9 9 9 9 9 9 8 8 7 7 7 6 6 6 5 5 5 5 6 5 5 6 6 5 5 6 5 5 6 6 6 6 6 6 7 8 8 9 9 9
10 9 9 8 9 9 9 9 9 9 7 6 6 6 6 6 6 6 5 5 5 5 5 5 5 6 6 5 5 5 5 5 6 6 6 5 5 7 7 7 7 8 8
10 9 8 8 9 9 9 9 8 8 7 7 6 6 6 6 6 6 5 5 5 5 5 5 6 6 5 5 5 4 5 5 6 7 7 7 7 7 8 7 7 8 8
8 8 8 8 9 9 9 8 8 7 7 7 8 7 7 6 6 6 6 5 5 5 5 5 6 6 5 5 5 5 5 5 6 7 7 7 8 8 8 8 8 7 6
8 8 8 8 8 8 8 7 8 8 8 8 8 8 7 7 6 6 6 5 5 5 5 5 5 5 5 4 4 5 4 5 5 5 6 7 8 8 9 8 8 8 7
8 8 7 7 7 8 7 7 8 8 8 8 8 7 7 7 7 6 6 5 4 4 4 4 4 4 4 4 5 5 5 5 5 5 5 5 7 8 9 8 8 8 6
8 8 7 7 8 7 7 7 8 9 8 8 8 8 7 7 6 6 5 4 4 4 4 4 4 3 3 3 4 5 5 5 5 5 4 4 4 5 6 7 6 7 6
7 7 7 7 8 7 7 7 8 9 8 8 8 8 8 7 6 6 5 4 3 3 3 3 3 3 2 2 3 3 4 4 4 4 3 3 3 4 4 5 5 5 5
7 6 7 7 8 8 7 7 8 8 7 7 7 7 7 6 6 5 4 3 3 2 3 3 3 3 3 3 2 2 2 2 3 2 2 3 3 3 3 3 3 4 4
6 6 6 7 8 9 8 8 8 7 7 7 7 7 6 6 5 5 4 4 3 3 3 3 3 3 3 4 5 4 3 3 3 3 2 2 2 2 2 3 3 3 3
7 7 7 8 8 8 9 9 7 6 6 6 6 5 5 5 5 5 4 5 4 5 5 5 5 4 4 5 5 4 4 4 4 3 3 3 3 3 3 3 3 3 3
Wind_Direction
315 319 319 323 324 327 319 290 263 263 258 191 240 230 227 246 244 233 213 206 202 204 207 199 193 187 187 187 181 166 160 159 153 143 131 119 128 150 153 151 153 147 144
320 331 331 328 329 322 309 304 270 257 247 234 232 224 234 240 245 235 225 220 214 208 208 204 203 198 191 188 185 172 168 170 176 171 164 169 183 189 203 189 183 176 160
312 322 330 332 326 325 319 302 288 266 254 257 237 237 228 242 245 233 227 235 228 220 212 210 212 206 196 193 193 191 185 180 187 195 185 180 191 175 182 192 190 194 189
313 320 327 334 334 327 322 315 303 293 272 239 230 214 226 246 258 247 238 241 234 230 224 216 216 212 204 199 201 200 197 188 187 194 217 225 170 179 175 185 190 196 201
314 318 323 325 326 327 322 318 319 314 306 278 251 230 235 246 261 251 245 236 235 234 233 225 220 220 211 205 206 204 204 200 197 195 193 188 183 199 196 195 187 192 201
320 321 323 324 325 329 326 322 323 319 317 309 284 252 246 251 260 254 248 237 237 240 238 234 231 225 220 211 209 210 209 209 207 204 201 197 194 198 198 202 194 196 195
330 329 332 328 326 328 326 318 318 317 316 311 302 281 263 247 246 247 243 244 239 242 240 244 239 235 228 220 214 212 212 212 210 209 209 209 211 203 204 200 201 204 199
331 330 330 327 327 327 324 317 312 309 310 303 296 291 277 259 249 246 247 243 241 245 243 242 242 242 235 224 219 216 213 214 214 213 212 211 210 203 203 202 198 198 208
327 326 323 325 326 325 324 322 314 309 306 299 299 291 288 277 265 255 253 245 244 252 247 239 240 242 240 230 222 221 214 214 216 214 213 214 211 204 205 204 204 203 212
324 324 322 322 323 321 319 320 318 311 309 303 295 292 291 283 276 266 256 259 258 254 251 242 239 241 241 233 226 225 215 211 213 213 212 213 211 203 202 204 210 216 216
319 321 319 319 319 320 323 322 322 316 311 308 302 305 297 286 275 264 262 264 264 257 246 249 243 239 242 237 235 226 216 212 210 209 213 213 208 203 202 202 206 209 209
312 317 319 321 321 322 325 323 319 314 312 309 301 303 302 291 279 274 272 272 268 261 252 248 249 244 241 237 240 233 222 216 212 210 210 215 208 205 204 203 205 207 205
315 318 321 323 324 324 323 319 319 316 314 309 301 300 300 293 284 275 273 271 271 268 259 251 249 250 244 237 237 237 230 222 218 212 209 212 210 207 205 205 207 208 203
321 325 326 324 323 322 322 322 322 320 314 309 299 296 295 291 290 286 281 274 270 267 260 253 251 253 250 241 236 236 236 228 225 218 215 215 212 211 208 206 206 203 198
325 323 323 323 323 324 325 323 321 321 315 304 298 296 295 293 292 287 280 277 271 265 261 254 252 254 248 243 236 232 235 230 225 221 219 221 220 219 216 210 205 201 200
321 322 323 324 325 325 323 323 321 319 313 304 299 299 297 296 295 291 280 276 273 268 262 257 252 252 249 252 243 237 231 230 225 223 221 221 218 216 216 216 209 204 202
317 321 323 321 320 321 321 321 319 318 314 309 307 306 303 299 296 293 283 280 276 272 266 264 259 252 252 247 237 239 235 231 231 229 223 218 215 213 215 213 210 211 213
314 317 317 317 318 319 320 319 319 320 319 315 310 310 307 301 300 298 289 286 281 274 271 269 263 255 251 242 236 237 232 235 236 235 230 222 216 212 209 211 216 220 220
310 314 314 312 314 318 322 322 322 324 324 322 320 315 308 303 302 301 294 291 286 280 274 268 264 258 253 238 235 238 229 229 237 239 234 229 222 206 201 206 211 217 221
313 317 319 318 317 320 323 324 324 326 324 320 317 316 311 303 299 295 294 289 282 279 277 270 263 257 254 251 243 238 229 229 235 238 234 230 224 207 200 208 209 213 214
317 321 323 322 320 321 325 323 322 321 319 318 317 316 313 307 301 295 290 282 280 281 278 274 271 267 262 259 255 245 230 228 234 236 234 231 216 209 206 213 217 215 208
321 324 325 322 323 325 326 322 320 319 320 321 320 319 316 313 310 303 296 286 278 277 278 279 283 283 273 269 270 268 244 238 237 240 238 227 207 206 208 215 211 201 195
315 319 320 319 322 324 323 315 314 318 320 321 320 321 322 318 314 311 304 297 287 276 275 273 278 289 291 285 282 273 263 249 240 236 224 215 204 203 207 199 195 196 196
310 314 318 318 319 322 321 312 311 316 319 319 319 320 322 320 320 315 308 298 288 280 281 281 279 285 289 286 279 265 258 245 232 225 196 193 202 207 197 194 201 208 201
306 310 310 311 313 318 318 318 317 319 318 317 317 320 320 319 320 318 314 309 300 286 278 275 272 274 281 284 279 264 247 233 216 201 212 213 202 208 205 198 199 197 193
303 306 307 309 311 314 315 317 317 316 314 315 318 318 318 319 319 320 321 327 316 325 317 302 288 284 288 300 292 276 265 242 204 203 206 212 210 214 218 205 201 205 205
Height
1518 1517 1516 1515 1515 1515 1516 1516 1517 1517 1518 1518 1519 1520 1522 1523 1524 1526 1527 1529 1531 1532 1534 1536 1538 1540 1542 1543 1545 1547 1549 1551 1553 1556 1558 1559 1561 1562 1563 1564 1565 1566 1567
1516 1515 1514 1513 1513 1513 1513 1513 1513 1514 1514 1515 1516 1518 1519 1520 1521 1522 1524 1525 1527 1529 1531 1533 1535 1537 1539 1540 1542 1544 1546 1548 1550 1553 1555 1558 1561 1560 1561 1562 1563 1564 1565
1514 1513 1512 1511 1511 1510 1510 1511 1511 1512 1512 1513 1514 1515 1516 1517 1518 1519 1520 1522 1523 1525 1527 1529 1531 1533 1535 1537 1539 1541 1543 1545 1547 1550 1553 1555 1556 1558 1559 1560 1561 1562 1563
1513 1512 1510 1509 1508 1508 1508 1508 1508 1509 1510 1510 1510 1511 1512 1513 1513 1515 1516 1518 1520 1521 1524 1526 1527 1529 1531 1534 1536 1538 1540 1542 1544 1547 1549 1551 1552 1554 1556 1558 1558 1560 1561
1512 1511 1509 1508 1507 1506 1505 1505 1505 1506 1506 1506 1507 1508 1509 1510 1511 1512 1513 1514 1516 1517 1519 1521 1523 1525 1527 1530 1532 1534 1536 1538 1540 1543 1545 1547 1549 1551 1552 1554 1555 1557 1558
1510 1508 1507 1506 1505 1504 1503 1503 1503 1502 1503 1504 1504 1505 1505 1506 1507 1508 1509 1510 1511 1513 1515 1517 1519 1521 1523 1525 1528 1530 1532 1534 1537 1539 1541 1543 1545 1547 1548 1550 1551 1553 1555
1509 1507 1505 1504 1503 1501 1500 1500 1499 1499 1500 1500 1500 1501 1502 1503 1504 1504 1505 1506 1507 1508 1510 1512 1514 1516 1518 1520 1523 1526 1528 1530 1532 1535 1537 1539 1541 1543 1545 1547 1548 1550 1551
1508 1506 1504 1502 1500 1499 1498 1497 1497 1497 1497 1498 1498 1498 1499 1500 1500 1501 1501 1501 1502 1504 1506 1507 1509 1511 1513 1515 1518 1521 1523 1526 1528 1530 1532 1534 1537 1539 1541 1543 1545 1546 1548
1507 1504 1503 1500 1498 1497 1496 1495 1495 1494 1494 1495 1495 1495 1496 1496 1496 1497 1497 1498 1499 1500 1502 1503 1504 1506 1508 1510 1513 1515 1518 1520 1523 1525 1527 1530 1532 1534 1536 1539 1541 1543 1544
1506 1503 1501 1499 1497 1496 1494 1493 1492 1492 1491 1491 1492 1492 1492 1492 1492 1492 1494 1494 1495 1496 1497 1498 1500 1501 1503 1505 1507 1509 1512 1515 1517 1520 1522 1524 1527 1529 1532 1534 1536 1538 1540
1505 1502 1500 1497 1495 1494 1492 1490 1489 1489 1488 1488 1487 1488 1487 1488 1489 1489 1490 1491 1491 1492 1493 1494 1496 1497 1498 1500 1502 1504 1506 1509 1512 1514 1517 1519 1522 1524 1526 1529 1531 1533 1535
1503 1501 1498 1495 1493 1491 1490 1488 1487 1486 1485 1484 1484 1484 1484 1484 1485 1485 1486 1487 1488 1489 1489 1490 1491 1492 1494 1495 1497 1499 1501 1503 1505 1508 1511 1514 1516 1519 1521 1523 1525 1528 1530
1501 1499 1497 1494 1492 1489 1487 1486 1484 1483 1482 1482 1481 1481 1481 1481 1481 1481 1482 1483 1484 1484 1485 1486 1486 1487 1489 1490 1492 1494 1496 1498 1500 1502 1505 1508 1511 1513 1515 1518 1520 1522 1524
1499 1497 1494 1492 1489 1487 1485 1483 1482 1481 1480 1479 1478 1478 1477 1478 1478 1478 1478 1478 1479 1480 1480 1482 1482 1483 1484 1486 1487 1489 1490 1492 1495 1497 1500 1503 1505 1507 1510 1512 1515 1517 1519
1497 1494 1492 1489 1487 1484 1482 1480 1479 1477 1476 1475 1475 1474 1474 1474 1474 1473 1473 1474 1475 1475 1476 1477 1477 1478 1479 1480 1481 1483 1485 1488 1490 1492 1495 1498 1500 1502 1505 1507 1509 1511 1513
1496 1493 1490 1487 1484 1482 1479 1477 1475 1474 1472 1471 1471 1470 1470 1469 1469 1469 1469 1470 1470 1471 1471 1472 1472 1473 1474 1475 1477 1478 1481 1483 1485 1487 1490 1492 1494 1497 1499 1501 1503 1505 1507
1495 1491 1488 1486 1483 1480 1477 1475 1473 1471 1469 1468 1467 1466 1465 1465 1465 1465 1465 1465 1465 1466 1466 1467 1467 1467 1468 1470 1472 1473 1476 1477 1480 1482 1484 1486 1489 1491 1493 1495 1498 1499 1501
1492 1490 1487 1484 1482 1479 1476 1473 1471 1468 1466 1465 1464 1463 1462 1461 1461 1460 1460 1460 1461 1461 1461 1461 1462 1463 1463 1465 1466 1468 1470 1472 1474 1476 1479 1481 1483 1485 1487 1490 1492 1493 1495
1491 1488 1485 1482 1479 1476 1473 1471 1468 1466 1464 1462 1460 1459 1458 1457 1456 1456 1456 1456 1456 1456 1457 1457 1458 1458 1459 1460 1461 1463 1465 1467 1469 1471 1473 1475 1477 1479 1482 1484 1485 1487 1489
1488 1485 1483 1480 1477 1474 1471 1468 1466 1463 1461 1459 1457 1456 1455 1454 1453 1452 1452 1452 1452 1452 1452 1452 1453 1454 1454 1455 1456 1458 1460 1461 1463 1465 1467 1469 1471 1473 1475 1478 1479 1480 1482
1485 1482 1479 1477 1474 1472 1469 1466 1463 1461 1459 1457 1455 1453 1452 1451 1450 1449 1449 1448 1448 1448 1448 1448 1448 1449 1449 1450 1451 1453 1455 1456 1458 1460 1461 1463 1465 1467 1469 1472 1473 1475 1478
1482 1479 1476 1473 1471 1469 1466 1463 1461 1459 1457 1455 1452 1451 1449 1447 1446 1445 1445 1444 1444 1444 1444 1444 1444 1444 1445 1446 1446 1448 1450 1451 1453 1454 1456 1458 1460 1462 1464 1466 1468 1470 1473
1479 1477 1474 1471 1469 1467 1464 1461 1459 1457 1455 1452 1450 1448 1446 1444 1443 1442 1441 1440 1440 1440 1440 1440 1440 1440 1441 1442 1443 1444 1445 1447 1448 1450 1451 1453 1455 1457 1459 1461 1463 1465 1467
1477 1474 1472 1469 1466 1464 1462 1459 1457 1455 1452 1450 1448 1445 1444 1442 1440 1439 1438 1437 1437 1437 1437 1437 1437 1437 1437 1438 1439 1440 1441 1442 1444 1445 1447 1449 1451 1452 1454 1455 1457 1459 1461
1475 1472 1469 1466 1464 1462 1459 1457 1455 1453 1450 1448 1446 1443 1441 1439 1437 1436 1436 1435 1434 1434 1434 1434 1434 1434 1434 1434 1435 1436 1437 1438 1440 1441 1443 1444 1446 1447 1448 1450 1452 1454 1456
1472 1469 1466 1464 1461 1459 1456 1454 1452 1450 1447 1445 1443 1441 1439 1437 1435 1434 1433 1432 1432 1431 1431 1431 1431 1430 1431 1431 1431 1432 1433 1435 1436 1438 1438 1440 1441 1442 1444 1445 1447 1449 1451